This demonstration page uses our WeatherBlox Daily Observations layout. Learn more.

Left ArrowRight Arrow

34.02893, -84.19858

Hourly Observations for September 28, 2022

Temp ( °F °C ) Dew Point ( °F °C ) Humidity (%) Winds ( mph kmh ) Pressure ( in mb ) Visibility ( mi km ) Precip ( " mm )
12:53 am 00:53 Clear 53 11.7 40 4.4 61 61 N 6 9 30.12 1020 10 16 0.00 0.00
1:53 am 01:53 Clear 54 12.2 40 4.4 59 59 NNW 10 17 30.11 1020 10 16 0.00 0.00
2:53 am 02:53 Clear 51 10.6 40 4.4 65 65 N 7 11 30.14 1021 10 16 0.00 0.00
3:53 am 03:53 Clear 49 9.4 40 4.4 71 71 NNE 3 6 30.14 1021 10 16 0.00 0.00
4:53 am 04:53 Clear 47 8.3 39 3.9 74 74 N 6 9 30.14 1021 10 16 0.00 0.00
5:53 am 05:53 Clear 47 8.3 40 4.4 76 76 NNE 3 6 30.15 1021 10 16 0.00 0.00
6:53 am 06:53 Clear 45 7.2 40 4.4 82 82 N 3 6 30.17 1022 10 16 0.00 0.00
7:53 am 07:53 Sunny 44 6.7 40 4.4 85 85 Calm 30.19 1022 10 16 0.00 0.00
8:53 am 08:53 Sunny 54 12.2 42 5.6 64 64 Calm 30.19 1023 10 16 0.00 0.00
9:53 am 09:53 Sunny 60 15.6 40 4.4 47 47 Calm 30.21 1023 10 16 0.00 0.00
10:53 am 10:53 Sunny 64 17.8 39 3.9 40 40 undefined N/A 30.21 1023 10 16 0.00 0.00
11:53 am 11:53 Sunny 66 18.9 37 2.8 34 34 VRB 3 6 30.21 1023 10 16 0.00 0.00
12:53 pm 12:53 Sunny 69 20.6 36 2.2 30 30 N 6 9 30.19 1023 10 16 0.00 0.00
1:53 pm 13:53 Sunny 70 21.1 36 2.2 29 29 VRB 5 7 30.18 1022 10 16 0.00 0.00
2:53 pm 14:53 Sunny 72 22.2 35 1.7 26 26 N 7 11 30.14 1021 10 16 0.00 0.00
3:53 pm 15:53 Sunny 72 22.2 38 3.3 29 29 N 6 9 30.13 1020 10 16 0.00 0.00
4:53 pm 16:53 Sunny 73 22.8 34 1.1 24 24 NNW 9 15 30.12 1020 10 16 0.00 0.00
5:53 pm 17:53 Sunny 71 21.7 38 3.3 30 30 N 12 19 30.12 1020 10 16 0.00 0.00
6:53 pm 18:53 Sunny 67 19.4 39 3.9 36 36 N 9 15 30.13 1020 10 16 0.00 0.00
7:53 pm 19:53 Clear 63 17.2 39 3.9 41 41 N 9 15 30.16 1021 10 16 0.00 0.00
8:53 pm 20:53 Clear 59 15 40 4.4 49 49 N 7 11 30.16 1021 10 16 0.00 0.00
9:53 pm 21:53 Clear 54 12.2 41 5 61 61 N 7 11 30.18 1022 10 16 0.00 0.00
10:53 pm 22:53 Clear 54 12.2 41 5 61 61 NNE 5 7 30.19 1023 10 16 0.00 0.00
11:53 pm 23:53 Clear 51 10.6 42 5.6 71 71 N 5 7 30.20 1023 10 16 0.00 0.00

Powered by AerisWeather